N12KBM KLAX-KSNA

Flight info

Callsign N12KBM
Flight time 0h 17m
Altitude VFR
Route VFR
Aircraft PA28/L-VGD/C

Departure

Time 2026-05-03 21:16
Airport Los Angeles International Airport (KLAX)

Arrival

Time 2026-05-03 21:34
Airport John Wayne Orange County International Airport (KSNA)
Time Latitude Longitude Altitude Speed Heading
2026-05-03 21:16 33.88658 -118.42790 2922 ft 127 kts 169°
2026-05-03 21:16 33.87688 -118.42543 2853 ft 143 kts 169°
2026-05-03 21:17 33.86725 -118.42318 2942 ft 147 kts 167°
2026-05-03 21:17 33.86046 -118.42075 2896 ft 152 kts 162°
2026-05-03 21:17 33.84817 -118.41379 3097 ft 143 kts 154°
2026-05-03 21:17 33.83994 -118.40810 3234 ft 142 kts 143°
2026-05-03 21:18 33.83168 -118.40115 3267 ft 145 kts 150°
2026-05-03 21:18 33.82330 -118.39515 3514 ft 136 kts 147°
2026-05-03 21:18 33.81662 -118.38690 3627 ft 141 kts 129°
2026-05-03 21:18 33.80994 -118.37829 3759 ft 143 kts 136°
2026-05-03 21:19 33.80293 -118.36994 3921 ft 141 kts 133°
2026-05-03 21:19 33.79702 -118.36065 4029 ft 142 kts 124°
2026-05-03 21:19 33.79067 -118.35113 4003 ft 150 kts 131°
2026-05-03 21:19 33.78390 -118.34154 4077 ft 149 kts 129°
2026-05-03 21:20 33.77835 -118.33134 4193 ft 146 kts 115°
2026-05-03 21:20 33.77396 -118.32094 4435 ft 137 kts 120°
2026-05-03 21:20 33.76920 -118.31099 4644 ft 133 kts 115°
2026-05-03 21:20 33.76477 -118.30160 4942 ft 127 kts 123°
2026-05-03 21:21 33.76016 -118.29297 5247 ft 121 kts 123°
2026-05-03 21:21 33.75530 -118.28482 5517 ft 119 kts 129°
2026-05-03 21:21 33.74999 -118.27695 5719 ft 123 kts 128°
2026-05-03 21:21 33.74601 -118.26827 6039 ft 114 kts 110°
2026-05-03 21:22 33.74294 -118.25945 6281 ft 115 kts 115°
2026-05-03 21:22 33.74038 -118.25097 6590 ft 112 kts 110°
2026-05-03 21:22 33.73738 -118.24173 6593 ft 133 kts 110°
2026-05-03 21:22 33.73379 -118.23091 6648 ft 138 kts 111°
2026-05-03 21:23 33.73020 -118.22046 6806 ft 136 kts 113°
2026-05-03 21:23 33.72690 -118.21009 6972 ft 132 kts 102°
2026-05-03 21:23 33.72488 -118.19922 6985 ft 142 kts 103°
2026-05-03 21:23 33.72248 -118.18745 6960 ft 150 kts 101°
2026-05-03 21:24 33.72045 -118.17492 6919 ft 150 kts 101°
2026-05-03 21:24 33.71804 -118.16365 7071 ft 142 kts 107°
2026-05-03 21:24 33.71377 -118.15288 7082 ft 146 kts 124°
2026-05-03 21:24 33.70803 -118.14341 7276 ft 138 kts 125°
2026-05-03 21:25 33.70269 -118.13393 7399 ft 138 kts 124°
2026-05-03 21:25 33.69748 -118.12405 7356 ft 149 kts 119°
2026-05-03 21:25 33.69263 -118.11317 7447 ft 144 kts 117°
2026-05-03 21:25 33.68781 -118.10235 7444 ft 148 kts 117°
2026-05-03 21:26 33.68338 -118.09140 7501 ft 147 kts 110°
2026-05-03 21:26 33.67953 -118.08007 7643 ft 140 kts 114°
2026-05-03 21:26 33.67570 -118.06912 7600 ft 151 kts 107°
2026-05-03 21:26 33.67338 -118.05615 7110 ft 171 kts 100°
2026-05-03 21:27 33.67103 -118.04304 6614 ft 147 kts 105°
2026-05-03 21:27 33.66823 -118.03167 6012 ft 144 kts 108°
2026-05-03 21:27 33.66461 -118.02074 5388 ft 141 kts 114°
2026-05-03 21:27 33.66159 -118.01429 5253 ft 123 kts 123°
2026-05-03 21:28 33.65754 -118.00652 5220 ft 96 kts 119°
2026-05-03 21:28 33.65498 -117.99935 5037 ft 96 kts 114°
2026-05-03 21:28 33.65170 -117.99207 4780 ft 107 kts 120°
2026-05-03 21:28 33.64752 -117.98466 4730 ft 105 kts 127°
2026-05-03 21:29 33.64276 -117.97797 4674 ft 106 kts 133°
2026-05-03 21:29 33.63741 -117.97203 4635 ft 102 kts 140°
2026-05-03 21:29 33.63211 -117.96727 4553 ft 88 kts 147°
2026-05-03 21:29 33.62723 -117.96311 4388 ft 82 kts 140°
2026-05-03 21:30 33.62358 -117.95785 4139 ft 89 kts 127°
2026-05-03 21:30 33.62014 -117.95130 3964 ft 100 kts 120°
2026-05-03 21:30 33.61641 -117.94370 3650 ft 110 kts 121°
2026-05-03 21:30 33.61255 -117.93549 3289 ft 108 kts 119°
2026-05-03 21:31 33.60964 -117.92794 3187 ft 92 kts 105°
2026-05-03 21:31 33.60900 -117.92033 3122 ft 85 kts 85°
2026-05-03 21:31 33.61072 -117.91357 2929 ft 91 kts 57°
2026-05-03 21:31 33.61512 -117.90807 2728 ft 94 kts 38°
2026-05-03 21:32 33.62049 -117.90359 2489 ft 95 kts 31°
2026-05-03 21:32 33.62619 -117.89963 2151 ft 97 kts 28°
2026-05-03 21:32 33.63214 -117.89574 1813 ft 98 kts 27°
2026-05-03 21:32 33.63809 -117.89197 1453 ft 93 kts 27°
2026-05-03 21:33 33.64346 -117.88848 1180 ft 88 kts 24°
2026-05-03 21:33 33.64909 -117.88537 995 ft 91 kts 25°
2026-05-03 21:33 33.65482 -117.88201 778 ft 89 kts 24°
2026-05-03 21:33 33.66041 -117.87857 448 ft 96 kts 15°
2026-05-03 21:34 33.66625 -117.87488 165 ft 86 kts 26°
2026-05-03 21:34 33.67111 -117.87186 58 ft 73 kts 27°
2026-05-03 21:34 33.67416 -117.86996 55 ft 12 kts 54°
2026-05-03 21:34 33.67423 -117.87009 55 ft 5 kts 266°
2026-05-03 21:35 33.67425 -117.87090 55 ft 10 kts 273°
2026-05-03 21:35 33.67465 -117.87160 53 ft 7 kts 341°
2026-05-03 21:35 33.67478 -117.87162 53 ft 0 kts 355°
2026-05-03 21:37 33.67483 -117.87159 53 ft 6 kts 47°
2026-05-03 21:38 33.67472 -117.87113 54 ft 5 kts 124°
2026-05-03 21:38 33.67454 -117.87088 54 ft 3 kts 129°
2026-05-03 21:38 33.67447 -117.87081 55 ft 9 kts 146°
2026-05-03 21:38 33.67371 -117.87019 54 ft 0 kts 213°
2026-05-03 21:39 33.67214 -117.87117 55 ft 58 kts 207°
2026-05-03 21:39 33.66757 -117.87416 233 ft 81 kts 210°
2026-05-03 21:39 33.66247 -117.87750 560 ft 87 kts 206°
2026-05-03 21:39 33.65716 -117.88127 935 ft 83 kts 214°
2026-05-03 21:40 33.65218 -117.88511 1263 ft 87 kts 212°
2026-05-03 21:40 33.64643 -117.88858 1491 ft 101 kts 202°
2026-05-03 21:40 33.63902 -117.89121 1516 ft 129 kts 194°
2026-05-03 21:40 33.62976 -117.89400 1577 ft 139 kts 194°
2026-05-03 21:41 33.62093 -117.89623 2066 ft 113 kts 182°
2026-05-03 21:41 33.61395 -117.89496 2544 ft 107 kts 164°
2026-05-03 21:41 33.60704 -117.89033 2753 ft 118 kts 145°
2026-05-03 21:41 33.59978 -117.88561 3040 ft 117 kts 153°
2026-05-03 21:42 33.59440 -117.87911 3398 ft 115 kts 130°
2026-05-03 21:42 33.58921 -117.87211 3738 ft 111 kts 135°
2026-05-03 21:42 33.58323 -117.86580 3937 ft 120 kts 142°
2026-05-03 21:42 33.57712 -117.85963 4314 ft 109 kts 142°
2026-05-03 21:43 33.57174 -117.85398 4691 ft 99 kts 132°
2026-05-03 21:43 33.56572 -117.84655 4374 ft 146 kts 134°
2026-05-03 21:43 33.55838 -117.83774 4414 ft 144 kts 136°
2026-05-03 21:43 33.55124 -117.83003 4666 ft 132 kts 138°
2026-05-03 21:44 33.54499 -117.82296 5046 ft 117 kts 137°
2026-05-03 21:44 33.53893 -117.81621 5247 ft 122 kts 138°
2026-05-03 21:44 33.53224 -117.80942 5338 ft 132 kts 142°
2026-05-03 21:44 33.52482 -117.80219 5318 ft 145 kts 142°
2026-05-03 21:45 33.51752 -117.79393 5471 ft 140 kts 131°
2026-05-03 21:45 33.51171 -117.78492 5643 ft 139 kts 128°
2026-05-03 21:45 33.50456 -117.77484 4894 ft 180 kts 136°
2026-05-03 21:45 33.49641 -117.76360 4666 ft 166 kts 124°
2026-05-03 21:46 33.49121 -117.75233 4680 ft 162 kts 121°
2026-05-03 21:46 33.48483 -117.74089 4500 ft 161 kts 123°
2026-05-03 21:46 33.47865 -117.73029 4597 ft 152 kts 126°
2026-05-03 21:46 33.47207 -117.72004 4347 ft 166 kts 132°
2026-05-03 21:47 33.46418 -117.70942 4057 ft 160 kts 130°
2026-05-03 21:47 33.45728 -117.69946 3887 ft 155 kts 127°
2026-05-03 21:47 33.45240 -117.68894 4010 ft 131 kts 118°
2026-05-03 21:47 33.44741 -117.67934 3669 ft 153 kts 125°
2026-05-03 21:48 33.44118 -117.66926 3648 ft 140 kts 135°
2026-05-03 21:48 33.43319 -117.66322 3714 ft 131 kts 149°
2026-05-03 21:48 33.42602 -117.65785 3963 ft 114 kts 152°
2026-05-03 21:48 33.41909 -117.65613 4243 ft 99 kts 169°
2026-05-03 21:49 33.41228 -117.65204 4176 ft 120 kts 148°
2026-05-03 21:49 33.40488 -117.64591 4071 ft 132 kts 142°